Time,TemperatureF,DewpointF,PressureIn,WindDirection,WindDirectionDegrees,WindSpeedMPH,WindSpeedGustMPH,Humidity,HourlyPrecipIn,Conditions,Clouds,dailyrainin,SolarRadiationWatts/m^2,SoftwareType,DateUTC
2013-09-15 00:03:00,56.0,56.0,-100.00,ESE,104,7.0,12.0,100,0.00,,,0.54,0.000000,,2013-09-15 05:03:00,
2013-09-15 00:11:00,56.0,56.0,-100.00,East,99,6.0,11.0,100,0.04,,,0.58,0.000000,,2013-09-15 05:11:00,
2013-09-15 00:42:00,56.0,56.0,-100.00,East,99,6.0,11.0,100,0.04,,,0.58,0.000000,,2013-09-15 05:42:00,
2013-09-15 00:52:00,56.0,56.0,-100.00,East,99,6.0,11.0,100,0.04,,,0.58,0.000000,,2013-09-15 05:52:00,
2013-09-15 01:02:00,56.0,56.0,-100.00,East,99,6.0,11.0,100,0.04,,,0.58,0.000000,,2013-09-15 06:02:00,
2013-09-15 01:11:00,55.0,55.0,-100.00,ESE,103,5.0,13.0,100,0.09,,,0.67,0.000000,,2013-09-15 06:11:00,
2013-09-15 01:42:00,55.0,55.0,-100.00,ESE,103,5.0,13.0,100,0.09,,,0.67,0.000000,,2013-09-15 06:42:00,
2013-09-15 01:52:00,55.0,55.0,-100.00,ESE,103,5.0,13.0,100,0.09,,,0.67,0.000000,,2013-09-15 06:52:00,
2013-09-15 02:02:00,55.0,55.0,-100.00,ESE,103,5.0,13.0,100,0.09,,,0.67,0.000000,,2013-09-15 07:02:00,
2013-09-15 02:11:00,55.0,55.0,-100.00,East,85,5.0,11.0,100,0.12,,,0.79,0.000000,,2013-09-15 07:11:00,
2013-09-15 02:42:00,55.0,55.0,-100.00,East,85,5.0,11.0,100,0.12,,,0.79,0.000000,,2013-09-15 07:42:00,
2013-09-15 02:52:00,55.0,55.0,-100.00,East,85,5.0,11.0,100,0.12,,,0.79,0.000000,,2013-09-15 07:52:00,
2013-09-15 03:02:00,55.0,55.0,-100.00,East,85,5.0,11.0,100,0.12,,,0.79,0.000000,,2013-09-15 08:02:00,
2013-09-15 03:11:00,55.0,55.0,-100.00,NE,34,7.0,9.0,100,0.10,,,0.89,0.000000,,2013-09-15 08:11:00,
2013-09-15 03:43:00,55.0,55.0,-100.00,NE,34,7.0,9.0,100,0.10,,,0.89,0.000000,,2013-09-15 08:43:00,
2013-09-15 03:52:00,55.0,55.0,-100.00,NE,34,7.0,9.0,100,0.10,,,0.89,0.000000,,2013-09-15 08:52:00,
2013-09-15 04:02:00,55.0,55.0,-100.00,NE,34,7.0,9.0,100,0.10,,,0.89,0.000000,,2013-09-15 09:02:00,
2013-09-15 04:11:00,56.0,56.0,-100.00,North,6,8.0,12.0,100,0.02,,,0.91,0.000000,,2013-09-15 09:11:00,
2013-09-15 04:44:00,56.0,56.0,-100.00,North,6,8.0,12.0,100,0.02,,,0.91,0.000000,,2013-09-15 09:44:00,
2013-09-15 04:53:00,56.0,56.0,-100.00,North,6,8.0,12.0,100,0.02,,,0.91,0.000000,,2013-09-15 09:53:00,
2013-09-15 05:03:00,56.0,56.0,-100.00,North,6,8.0,12.0,100,0.02,,,0.91,0.000000,,2013-09-15 10:03:00,
2013-09-15 05:11:00,56.0,56.0,-100.00,North,9,8.0,12.0,100,0.00,,,0.91,0.000000,,2013-09-15 10:11:00,
2013-09-15 05:43:00,56.0,56.0,-100.00,North,9,8.0,12.0,100,0.00,,,0.91,0.000000,,2013-09-15 10:43:00,
2013-09-15 05:53:00,56.0,56.0,-100.00,North,9,8.0,12.0,100,0.00,,,0.91,0.000000,,2013-09-15 10:53:00,
2013-09-15 06:02:00,56.0,56.0,-100.00,North,9,8.0,12.0,100,0.00,,,0.91,0.000000,,2013-09-15 11:02:00,
2013-09-15 06:11:00,55.0,55.0,-100.00,North,5,8.0,15.0,100,0.00,,,0.91,0.000000,,2013-09-15 11:11:00,
2013-09-15 06:42:00,55.0,55.0,-100.00,North,5,8.0,15.0,100,0.00,,,0.91,0.000000,,2013-09-15 11:42:00,
2013-09-15 06:52:00,55.0,55.0,-100.00,North,5,8.0,15.0,100,0.00,,,0.91,0.000000,,2013-09-15 11:52:00,
2013-09-15 07:02:00,55.0,55.0,-100.00,North,5,8.0,15.0,100,0.00,,,0.91,0.000000,,2013-09-15 12:02:00,
2013-09-15 07:11:00,55.0,55.0,-100.00,North,8,7.0,13.0,100,0.00,,,0.91,0.000000,,2013-09-15 12:11:00,
2013-09-15 07:42:00,55.0,55.0,-100.00,North,8,7.0,13.0,100,0.00,,,0.91,0.000000,,2013-09-15 12:42:00,
2013-09-15 07:52:00,55.0,55.0,-100.00,North,8,7.0,13.0,100,0.00,,,0.91,0.000000,,2013-09-15 12:52:00,
2013-09-15 08:02:00,55.0,55.0,-100.00,North,8,7.0,13.0,100,0.00,,,0.91,0.000000,,2013-09-15 13:02:00,
2013-09-15 08:11:00,56.0,55.0,-100.00,North,350,10.0,14.0,98,0.00,,,0.91,34.000000,,2013-09-15 13:11:00,
2013-09-15 08:42:00,56.0,55.0,-100.00,North,350,10.0,14.0,98,0.00,,,0.91,34.000000,,2013-09-15 13:42:00,
2013-09-15 08:53:00,56.0,55.0,-100.00,North,350,10.0,14.0,98,0.00,,,0.91,34.000000,,2013-09-15 13:53:00,
2013-09-15 09:02:00,56.0,55.0,-100.00,North,350,10.0,14.0,98,0.00,,,0.91,34.000000,,2013-09-15 14:02:00,
2013-09-15 14:11:00,65.0,51.0,-100.00,NNE,25,11.0,18.0,61,0.00,,,0.91,412.000000,,2013-09-15 19:11:00,
2013-09-15 14:42:00,65.0,51.0,-100.00,NNE,25,11.0,18.0,61,0.00,,,0.91,412.000000,,2013-09-15 19:42:00,
2013-09-15 14:52:00,65.0,51.0,-100.00,NNE,25,11.0,18.0,61,0.00,,,0.91,412.000000,,2013-09-15 19:52:00,
2013-09-15 15:02:00,65.0,51.0,-100.00,NNE,25,11.0,18.0,61,0.00,,,0.91,412.000000,,2013-09-15 20:02:00,
2013-09-15 15:11:00,63.0,53.0,-100.00,North,9,13.0,21.0,70,0.01,,,0.90,400.000000,,2013-09-15 20:11:00,
2013-09-15 15:42:00,63.0,53.0,-100.00,North,9,13.0,21.0,70,0.01,,,0.90,400.000000,,2013-09-15 20:42:00,
2013-09-15 15:53:00,63.0,53.0,-100.00,North,9,13.0,21.0,70,0.01,,,0.90,400.000000,,2013-09-15 20:53:00,
2013-09-15 16:02:00,63.0,53.0,-100.00,North,9,13.0,21.0,70,0.01,,,0.90,400.000000,,2013-09-15 21:02:00,
2013-09-15 16:11:00,66.0,52.0,-100.00,NNE,19,11.0,16.0,60,0.00,,,0.77,566.000000,,2013-09-15 21:11:00,
2013-09-15 16:44:00,66.0,52.0,-100.00,NNE,19,11.0,16.0,60,0.00,,,0.77,566.000000,,2013-09-15 21:44:00,
2013-09-15 16:54:00,66.0,52.0,-100.00,NNE,19,11.0,16.0,60,0.00,,,0.77,566.000000,,2013-09-15 21:54:00,
2013-09-15 17:04:00,66.0,52.0,-100.00,NNE,19,11.0,16.0,60,0.00,,,0.77,566.000000,,2013-09-15 22:04:00,
2013-09-15 17:11:00,65.0,52.0,-100.00,North,357,11.0,19.0,62,0.00,,,0.72,419.000000,,2013-09-15 22:11:00,
2013-09-15 17:44:00,65.0,52.0,-100.00,North,357,11.0,19.0,62,0.00,,,0.72,419.000000,,2013-09-15 22:44:00,
2013-09-15 17:53:00,65.0,52.0,-100.00,North,357,11.0,19.0,62,0.00,,,0.72,419.000000,,2013-09-15 22:53:00,
2013-09-15 18:02:00,65.0,52.0,-100.00,North,357,11.0,19.0,62,0.00,,,0.72,419.000000,,2013-09-15 23:02:00,
2013-09-15 18:11:00,62.0,51.0,-100.00,North,2,10.0,18.0,66,0.00,,,0.64,232.000000,,2013-09-15 23:11:00,
2013-09-15 18:42:00,62.0,51.0,-100.00,North,2,10.0,18.0,66,0.00,,,0.64,232.000000,,2013-09-15 23:42:00,
2013-09-15 18:53:00,62.0,51.0,-100.00,North,2,10.0,18.0,66,0.00,,,0.64,232.000000,,2013-09-15 23:53:00,
2013-09-15 19:01:00,62.0,51.0,-100.00,North,2,10.0,18.0,66,0.00,,,0.64,232.000000,,2013-09-16 00:01:00,
2013-09-15 19:11:00,58.0,51.0,-100.00,North,11,8.0,15.0,78,0.00,,,0.42,59.000000,,2013-09-16 00:11:00,
2013-09-15 19:42:00,58.0,51.0,-100.00,North,11,8.0,15.0,78,0.00,,,0.42,59.000000,,2013-09-16 00:42:00,
2013-09-15 19:52:00,58.0,51.0,-100.00,North,11,8.0,15.0,78,0.00,,,0.42,59.000000,,2013-09-16 00:52:00,
2013-09-15 20:02:00,58.0,51.0,-100.00,North,11,8.0,15.0,78,0.00,,,0.42,59.000000,,2013-09-16 01:02:00,
2013-09-15 20:11:00,54.0,51.0,-100.00,NNW,343,5.0,11.0,88,0.00,,,0.41,4.000000,,2013-09-16 01:11:00,
2013-09-15 20:42:00,54.0,51.0,-100.00,NNW,343,5.0,11.0,88,0.00,,,0.41,4.000000,,2013-09-16 01:42:00,
2013-09-15 20:52:00,54.0,51.0,-100.00,NNW,343,5.0,11.0,88,0.00,,,0.41,4.000000,,2013-09-16 01:52:00,
2013-09-15 21:02:00,54.0,51.0,-100.00,NNW,343,5.0,11.0,88,0.00,,,0.41,4.000000,,2013-09-16 02:02:00,
2013-09-15 21:11:00,52.0,49.0,-100.00,NNW,337,5.0,7.0,90,0.00,,,0.39,0.000000,,2013-09-16 02:11:00,
2013-09-15 21:42:00,52.0,49.0,-100.00,NNW,337,5.0,7.0,90,0.00,,,0.39,0.000000,,2013-09-16 02:42:00,
2013-09-15 21:52:00,52.0,49.0,-100.00,NNW,337,5.0,7.0,90,0.00,,,0.39,0.000000,,2013-09-16 02:52:00,
2013-09-15 22:02:00,52.0,49.0,-100.00,NNW,337,5.0,7.0,90,0.00,,,0.39,0.000000,,2013-09-16 03:02:00,
2013-09-15 22:11:00,49.0,47.0,-100.00,North,349,5.0,7.0,93,0.00,,,0.38,0.000000,,2013-09-16 03:11:00,
2013-09-15 22:45:00,49.0,47.0,-100.00,North,349,5.0,7.0,93,0.00,,,0.38,0.000000,,2013-09-16 03:45:00,
2013-09-15 22:55:00,49.0,47.0,-100.00,North,349,5.0,7.0,93,0.00,,,0.38,0.000000,,2013-09-16 03:55:00,
2013-09-15 23:05:00,49.0,47.0,-100.00,North,349,5.0,7.0,93,0.00,,,0.38,0.000000,,2013-09-16 04:05:00,
2013-09-15 23:11:00,47.0,46.0,-100.00,NNE,27,4.0,5.0,98,0.00,,,0.38,0.000000,,2013-09-16 04:11:00,
2013-09-15 23:43:00,47.0,46.0,-100.00,NNE,27,4.0,5.0,98,0.00,,,0.38,0.000000,,2013-09-16 04:43:00,
2013-09-15 23:54:00,47.0,46.0,-100.00,NNE,27,4.0,5.0,98,0.00,,,0.38,0.000000,,2013-09-16 04:54:00,